Wind_Speed
59 69 70 72 71 73 66 56 47 39 40 42 40 39 30 29 25 23 19 16 17 17 18 17 15 14 13 12 12 12 13 12 11 10 8 6 5 3 3 3 2 1 1 2 3 4 5 5 6
66 62 65 74 77 77 70 60 51 42 43 45 46 41 36 28 25 26 22 18 16 17 18 19 17 16 15 14 15 14 14 14 13 11 9 7 6 5 4 4 3 2 0 1 2 2 3 3 4
53 41 48 59 67 80 73 65 54 47 48 48 48 43 39 31 29 31 24 22 19 19 19 19 18 17 16 16 16 16 15 15 13 12 10 9 8 6 6 5 4 2 2 1 1 0 1 2 3
35 35 37 43 49 63 71 66 59 53 51 49 50 47 42 34 31 31 32 26 22 20 20 20 19 19 18 18 18 18 17 15 13 12 11 9 9 7 7 6 5 4 4 3 3 3 3 3 3
31 29 32 34 34 42 68 69 61 55 54 52 51 50 44 37 34 32 30 28 24 23 22 20 20 20 20 20 20 18 18 16 14 13 12 11 10 9 8 7 6 6 6 5 5 5 6 6 6
30 27 27 27 30 38 56 69 63 58 56 54 53 52 47 42 37 38 33 30 26 24 24 22 21 22 21 21 21 20 19 17 16 14 13 12 11 10 9 8 8 8 7 7 8 8 9 9 10
31 24 23 23 28 38 47 61 65 63 61 61 54 53 47 45 43 38 37 32 28 26 24 23 23 22 22 22 21 21 20 18 17 15 14 13 12 10 9 9 9 9 9 9 10 11 12 13 14
27 22 20 22 24 37 47 50 60 61 63 62 46 53 46 44 41 41 38 33 30 27 27 26 26 25 24 23 23 22 21 20 18 17 15 13 11 10 9 9 9 10 10 12 12 14 14 16 17
24 19 18 21 21 32 40 44 54 61 63 64 60 49 44 55 46 40 35 35 32 28 26 27 27 27 26 25 25 24 23 21 19 18 16 14 12 11 9 9 10 11 12 13 14 15 16 17 17
19 20 17 17 16 25 34 41 51 59 62 64 63 43 39 38 50 44 37 37 33 30 28 27 29 29 28 28 27 26 25 23 21 20 17 14 13 11 10 12 14 14 15 15 16 17 17 18 17
19 17 15 18 17 16 32 37 47 58 61 65 63 63 43 46 40 50 47 42 37 35 34 30 30 31 31 31 30 28 27 25 23 20 18 17 15 13 16 16 17 18 18 18 18 19 18 18 19
18 15 14 16 17 16 21 33 45 57 59 64 64 63 43 53 51 48 49 45 41 38 35 34 33 33 33 33 32 31 29 27 24 22 20 19 19 19 21 21 21 21 22 22 22 21 20 20 22
16 17 14 16 15 17 21 24 40 55 60 62 65 63 63 59 45 45 48 44 46 40 38 36 36 36 36 35 33 32 31 28 24 21 19 18 21 23 25 25 26 27 27 26 24 24 23 21 24
20 16 16 16 20 18 20 28 28 48 60 63 65 64 65 60 49 47 45 55 53 42 40 38 38 39 38 37 35 32 30 27 25 22 20 22 24 23 24 24 23 24 24 26 27 24 21 24 25
22 14 15 18 18 20 19 26 32 41 58 63 66 65 65 61 58 54 55 54 52 46 44 41 41 41 40 38 34 32 31 28 25 22 21 21 21 20 19 19 20 20 21 20 20 20 24 24 22
23 15 16 19 18 18 19 15 38 44 52 61 65 67 62 62 58 57 56 52 61 52 47 45 44 43 42 39 36 34 32 28 24 22 22 21 18 18 17 17 17 17 17 18 21 22 22 20 20
26 18 15 18 18 19 17 16 28 48 53 61 64 66 62 62 64 50 57 56 51 50 48 46 46 46 44 41 38 36 32 28 26 23 22 20 18 16 15 16 16 16 16 17 18 19 20 20 18
29 20 14 16 18 15 15 15 22 38 55 59 64 63 66 66 61 58 53 49 56 56 53 50 50 50 47 44 40 35 32 30 26 24 23 21 19 17 15 15 15 15 16 16 16 16 15 15 16
30 26 18 15 16 13 14 15 20 32 48 56 60 62 67 65 62 57 40 46 50 64 59 57 55 53 50 45 39 36 34 32 27 26 23 21 20 18 16 15 13 13 14 14 13 14 14 14 14
27 28 26 14 17 13 17 12 21 27 38 47 53 60 67 67 63 57 47 42 49 42 62 57 55 55 52 47 44 41 37 33 30 27 24 24 23 21 18 16 15 15 14 14 14 14 13 14 17
30 27 28 21 18 14 17 14 21 24 29 37 45 57 61 67 62 56 56 52 46 55 63 60 57 56 54 51 47 43 39 34 31 30 29 27 25 23 22 19 17 16 16 16 17 16 16 17 19
29 27 28 27 20 13 14 12 20 24 22 25 35 48 55 64 62 65 61 57 44 47 59 61 59 60 57 56 51 46 42 39 38 37 33 29 27 25 22 20 18 18 18 18 19 20 20 20 21
30 30 24 27 25 14 12 8 15 20 22 22 30 42 47 60 67 70 67 64 57 47 38 46 65 62 63 60 57 51 47 44 43 40 36 34 30 28 25 23 21 20 20 20 20 22 22 22 22
29 30 29 25 24 14 18 16 6 20 21 19 22 35 42 53 65 68 69 68 64 57 47 43 32 59 60 51 63 54 49 47 45 43 41 38 35 31 30 28 25 23 22 21 21 22 23 24 25
29 29 31 28 25 21 19 13 11 17 24 26 20 25 35 45 56 63 66 69 68 63 59 55 49 46 52 66 68 54 47 50 49 47 45 42 39 35 34 32 30 28 26 25 25 25 25 25 26
29 29 29 33 28 22 19 16 12 18 23 25 25 25 28 37 47 59 60 62 57 60 62 60 56 54 54 46 40 57 52 53 51 50 50 47 43 39 35 35 33 33 31 31 31 31 31 29 29
30 30 29 30 30 26 18 16 16 17 22 26 27 25 28 30 39 49 55 53 53 55 61 61 57 53 57 54 44 47 55 57 54 51 54 52 49 42 39 38 38 38 35 33 33 34 35 34 34
32 34 29 29 35 31 21 12 23 24 20 25 28 29 26 31 31 38 49 52 49 53 57 59 54 50 52 51 50 54 43 65 63 57 56 56 57 51 42 43 42 40 37 36 38 37 34 34 37
37 33 30 34 33 35 27 14 20 20 19 20 26 29 27 25 30 29 35 46 50 53 59 60 56 55 54 48 48 55 55 49 46 46 46 46 56 51 53 45 38 33 34 35 34 37 39 37 37
40 36 34 35 35 35 32 13 16 24 23 18 19 24 30 32 29 30 33 34 38 44 54 58 60 55 54 49 49 53 52 47 41 47 47 49 53 62 50 40 35 38 40 42 41 40 42 41 43
Wind_Direction
281 264 252 243 237 241 241 239 235 225 225 231 234 229 229 226 222 226 221 217 217 226 227 224 223 220 217 213 203 194 189 189 189 193 194 199 220 235 260 271 278 311 11 80 94 89 78 69 58
290 267 252 241 236 234 238 233 229 221 221 227 233 228 226 225 223 230 222 217 213 220 226 221 222 221 217 213 207 201 194 197 195 198 205 217 233 248 253 248 247 267 200 120 105 84 67 56 50
292 276 257 247 239 230 229 230 221 217 217 222 229 227 227 224 224 226 225 222 220 217 222 224 220 219 215 215 211 204 200 202 202 205 211 223 237 249 254 256 259 242 198 186 195 225 342 357 11
292 276 266 261 257 237 229 226 218 213 216 223 224 226 221 224 221 218 223 220 218 220 220 221 221 218 214 215 212 205 205 207 210 215 222 229 237 245 250 252 256 236 215 216 250 273 277 287 314
298 278 274 262 253 240 228 226 219 213 213 220 221 223 221 217 220 222 221 215 216 216 214 217 218 219 217 214 211 209 206 210 214 220 225 231 237 240 243 242 242 232 230 239 259 270 273 278 288
316 283 279 264 253 232 226 227 219 213 212 218 223 220 219 214 215 218 225 216 214 216 215 214 216 216 216 214 211 209 209 209 215 221 225 230 234 237 239 242 242 239 240 251 265 267 265 269 278
318 290 278 261 249 229 217 225 221 211 209 215 218 220 218 212 215 216 221 220 215 215 221 217 212 211 212 212 210 210 209 210 215 221 226 228 231 232 236 243 244 244 248 256 265 270 273 278 283
330 302 268 263 256 228 221 220 219 212 210 212 219 216 213 213 216 217 215 217 216 216 219 219 215 210 210 210 210 210 211 212 214 220 223 227 229 233 237 245 254 258 266 264 266 272 277 282 289
327 323 271 273 263 236 227 215 216 213 210 213 215 218 212 204 209 210 213 213 216 216 218 221 219 215 212 211 210 210 209 212 214 217 219 220 227 232 243 259 266 270 273 274 277 280 283 287 292
325 320 281 265 263 237 229 214 211 213 211 214 212 201 213 206 205 208 215 213 214 213 214 222 221 216 214 210 208 209 210 211 214 215 215 220 223 233 259 273 275 273 276 281 284 285 286 289 291
319 318 301 266 267 252 231 211 210 213 212 217 220 226 207 215 208 212 214 217 211 212 211 214 218 215 213 209 206 208 209 210 213 213 217 215 224 246 263 272 278 276 278 281 283 288 291 291 292
316 315 305 276 256 257 229 216 208 214 214 218 221 226 207 215 221 226 210 210 210 213 211 211 213 213 209 209 206 207 208 209 211 214 220 228 237 259 273 274 272 276 277 278 281 282 284 292 301
314 303 303 290 275 248 232 218 210 215 215 217 220 221 222 222 213 212 214 211 214 211 212 210 210 208 207 204 206 209 210 209 205 208 220 239 251 260 268 270 274 276 276 275 276 277 280 288 301
334 293 295 286 273 261 244 226 215 212 218 218 220 222 226 230 227 218 225 214 209 207 211 210 209 206 205 203 205 205 205 203 207 219 232 246 253 260 264 269 272 274 273 272 269 274 277 289 295
346 297 287 287 282 269 258 236 219 214 218 220 222 221 227 228 229 223 227 221 207 205 209 207 207 204 204 200 199 199 203 209 218 228 238 245 250 258 260 265 267 271 275 273 272 267 278 285 289
348 317 283 276 284 281 259 253 224 217 222 220 222 224 225 226 230 233 236 221 199 204 206 205 203 200 199 198 199 204 209 213 218 226 236 244 243 252 258 259 264 268 269 270 270 275 280 282 288
347 339 294 282 270 283 275 254 240 223 220 223 221 223 223 225 228 230 232 208 198 206 205 206 203 201 202 203 206 208 211 214 218 224 230 235 241 252 253 256 261 264 267 271 274 278 282 287 286
345 340 323 289 285 275 284 251 250 232 223 226 224 221 221 224 227 230 216 205 192 206 205 205 205 206 205 206 206 208 213 216 218 222 225 230 238 246 253 257 261 262 266 272 276 279 284 285 288
345 341 338 311 283 272 283 257 249 234 230 227 228 221 222 221 226 224 206 217 210 208 207 204 206 207 208 207 207 210 215 217 218 219 222 229 236 242 249 256 263 264 266 270 275 281 287 291 291
340 343 337 315 308 274 258 260 244 244 234 232 231 225 223 223 226 234 234 238 205 204 211 206 208 209 210 207 209 212 215 215 219 221 223 229 237 243 249 256 262 266 269 273 276 281 285 292 296
331 340 339 338 324 302 258 248 247 250 244 238 234 228 225 225 225 224 225 225 202 204 202 207 209 212 211 210 211 213 215 215 218 220 224 230 239 245 249 253 259 266 270 272 275 280 285 291 296
326 332 335 338 337 326 294 244 240 251 250 242 235 233 227 224 225 225 228 214 213 204 206 206 212 212 214 214 212 212 212 212 216 221 227 229 233 239 243 248 255 261 267 272 276 280 284 288 293
320 322 329 331 339 346 285 300 216 249 253 246 234 235 229 224 225 228 230 237 246 245 251 219 216 216 214 220 212 212 211 213 219 224 227 230 231 234 240 246 252 258 263 269 274 278 282 287 290
313 317 318 324 331 346 313 314 228 234 252 252 238 241 233 227 227 235 234 240 248 252 257 237 248 219 224 209 215 211 210 214 220 226 227 230 232 234 239 244 250 256 259 265 274 278 281 284 287
305 309 312 315 318 328 337 336 254 244 252 254 244 239 240 232 233 239 241 240 247 250 253 255 253 251 237 222 221 209 211 217 219 225 228 230 232 235 241 245 249 253 256 260 266 274 280 286 288
295 300 305 308 311 315 329 329 290 259 256 256 257 251 244 234 231 239 244 246 247 246 245 248 250 256 257 215 241 214 211 219 221 224 229 229 230 234 240 244 251 254 258 262 264 267 275 282 287
286 290 295 297 300 304 312 320 307 276 262 263 260 248 240 245 232 231 240 243 244 246 247 247 249 248 253 260 261 221 229 219 223 224 228 227 231 233 235 243 250 255 258 258 266 270 273 276 283
277 279 287 293 292 296 296 317 303 298 281 268 266 264 249 235 240 240 234 239 236 237 240 242 243 243 244 247 252 256 237 238 224 228 230 232 233 230 235 241 247 254 261 265 264 268 270 277 280
264 271 276 281 287 289 291 297 292 294 297 283 267 266 262 248 237 237 244 241 237 230 234 239 238 232 239 243 246 253 260 264 241 242 233 243 247 238 244 237 244 254 259 267 267 264 267 274 281
261 263 268 274 278 275 283 286 290 285 289 284 275 269 264 260 252 241 239 241 243 240 232 231 236 230 231 234 237 250 251 243 244 242 250 254 243 246 231 232 244 258 263 264 265 265 269 273 278
Height
5789 5783 5780 5780 5782 5780 5791 5804 5814 5822 5823 5823 5825 5830 5836 5837 5839 5843 5843 5844 5845 5847 5849 5851 5852 5854 5855 5856 5857 5859 5861 5863 5864 5866 5868 5869 5870 5870 5871 5871 5871 5872 5873 5873 5873 5874 5873 5873 5873
5766 5757 5756 5756 5760 5762 5783 5791 5803 5813 5813 5815 5815 5823 5828 5834 5836 5837 5839 5841 5841 5844 5846 5848 5850 5852 5854 5855 5856 5858 5860 5862 5864 5866 5867 5869 5870 5870 5871 5871 5871 5872 5872 5873 5873 5873 5873 5873 5873
5743 5737 5737 5735 5739 5746 5765 5779 5790 5801 5804 5804 5809 5816 5821 5829 5831 5832 5835 5836 5838 5840 5843 5845 5847 5849 5852 5854 5855 5857 5859 5861 5863 5865 5866 5868 5869 5870 5870 5871 5871 5872 5872 5872 5873 5873 5873 5873 5873
5733 5728 5726 5725 5731 5747 5755 5768 5776 5787 5794 5796 5801 5807 5816 5822 5825 5827 5830 5833 5835 5837 5839 5842 5845 5847 5849 5851 5853 5855 5857 5860 5862 5864 5866 5867 5868 5869 5870 5871 5871 5872 5872 5872 5872 5873 5872 5873 5873
5724 5720 5719 5720 5724 5732 5740 5750 5768 5776 5784 5787 5793 5801 5809 5815 5819 5822 5825 5828 5830 5832 5835 5839 5842 5844 5846 5849 5851 5853 5856 5859 5861 5863 5865 5866 5867 5868 5869 5870 5871 5871 5872 5872 5872 5872 5872 5872 5872
5717 5714 5713 5713 5716 5719 5729 5741 5751 5763 5772 5780 5785 5793 5801 5808 5813 5816 5820 5823 5826 5829 5832 5835 5838 5841 5843 5846 5849 5852 5854 5857 5859 5861 5863 5865 5866 5867 5868 5869 5870 5871 5871 5871 5871 5871 5871 5871 5870
5712 5708 5708 5708 5708 5712 5719 5722 5738 5748 5758 5766 5773 5784 5794 5801 5806 5811 5816 5820 5822 5825 5829 5832 5834 5837 5840 5844 5846 5849 5852 5854 5857 5860 5862 5863 5864 5866 5867 5867 5868 5869 5869 5869 5870 5869 5869 5869 5868
5708 5705 5704 5703 5702 5704 5705 5716 5731 5745 5753 5759 5767 5776 5786 5796 5800 5805 5811 5816 5819 5821 5824 5828 5831 5834 5837 5840 5843 5846 5849 5852 5855 5858 5860 5862 5863 5864 5865 5866 5867 5867 5867 5868 5867 5867 5867 5866 5866
5707 5704 5701 5701 5699 5701 5705 5713 5726 5739 5747 5752 5760 5769 5773 5782 5792 5799 5805 5810 5815 5818 5821 5825 5828 5830 5833 5836 5840 5843 5846 5850 5852 5855 5857 5859 5861 5862 5863 5864 5865 5865 5865 5865 5865 5865 5864 5863 5863
5706 5703 5699 5698 5697 5699 5701 5708 5719 5731 5741 5747 5753 5754 5758 5770 5782 5792 5799 5804 5809 5812 5815 5820 5824 5826 5830 5833 5836 5840 5843 5847 5850 5852 5854 5856 5858 5859 5861 5862 5862 5862 5862 5862 5862 5862 5861 5860 5860
5704 5702 5699 5696 5696 5697 5702 5708 5716 5727 5735 5740 5744 5747 5761 5768 5775 5786 5791 5797 5802 5806 5809 5814 5818 5822 5825 5828 5832 5836 5840 5843 5847 5849 5852 5853 5855 5857 5858 5858 5859 5859 5859 5859 5859 5859 5859 5858 5857
5703 5700 5698 5696 5696 5698 5700 5705 5712 5721 5729 5735 5741 5745 5753 5763 5770 5776 5784 5790 5795 5801 5806 5808 5813 5817 5821 5825 5827 5831 5835 5839 5842 5845 5848 5851 5852 5853 5854 5855 5855 5855 5856 5856 5856 5856 5856 5855 5854
5701 5697 5696 5694 5694 5694 5697 5701 5707 5717 5722 5728 5735 5742 5746 5753 5762 5770 5777 5784 5790 5795 5800 5803 5807 5811 5816 5820 5823 5827 5831 5835 5838 5841 5844 5846 5848 5849 5850 5850 5851 5851 5851 5851 5851 5851 5852 5851 5850
5699 5696 5694 5691 5690 5692 5695 5699 5705 5712 5715 5720 5726 5734 5737 5744 5755 5765 5770 5775 5783 5789 5793 5798 5802 5806 5810 5814 5818 5822 5828 5831 5834 5837 5840 5842 5843 5844 5845 5845 5846 5846 5846 5846 5846 5847 5847 5846 5846
5697 5694 5692 5688 5687 5688 5691 5697 5702 5703 5703 5711 5717 5726 5730 5740 5748 5760 5764 5767 5778 5782 5786 5791 5796 5801 5806 5810 5815 5819 5823 5827 5831 5834 5836 5838 5839 5840 5841 5841 5841 5841 5841 5841 5841 5842 5842 5842 5841
5695 5692 5689 5685 5684 5684 5687 5691 5692 5694 5696 5703 5708 5716 5724 5735 5743 5751 5755 5761 5767 5773 5779 5784 5790 5796 5801 5806 5810 5814 5819 5822 5826 5829 5832 5834 5835 5836 5836 5836 5837 5837 5837 5837 5837 5838 5837 5837 5837
5694 5689 5687 5682 5683 5682 5682 5684 5682 5685 5687 5691 5699 5707 5716 5726 5734 5741 5746 5748 5757 5766 5771 5778 5785 5791 5795 5800 5805 5810 5814 5817 5820 5823 5826 5829 5831 5832 5832 5832 5833 5833 5833 5833 5833 5833 5833 5833 5833
5692 5687 5683 5680 5678 5679 5678 5677 5676 5678 5681 5685 5692 5701 5709 5718 5727 5733 5739 5745 5750 5755 5764 5771 5778 5782 5789 5793 5799 5804 5810 5813 5815 5818 5821 5824 5826 5828 5828 5829 5829 5829 5829 5829 5829 5830 5829 5829 5829
5691 5686 5681 5676 5673 5675 5674 5672 5670 5669 5672 5679 5684 5695 5700 5709 5716 5725 5727 5734 5728 5747 5754 5761 5768 5774 5782 5788 5795 5800 5803 5807 5810 5812 5816 5819 5821 5823 5824 5824 5825 5825 5825 5825 5825 5826 5825 5825 5825
5688 5684 5679 5675 5670 5669 5669 5668 5664 5663 5665 5672 5678 5686 5696 5701 5707 5714 5720 5718 5730 5730 5747 5753 5762 5768 5775 5782 5786 5790 5796 5800 5805 5809 5811 5813 5816 5818 5820 5820 5820 5821 5821 5821 5821 5821 5821 5821 5821
5684 5681 5676 5673 5668 5664 5664 5665 5661 5658 5659 5665 5672 5678 5689 5695 5702 5709 5716 5721 5723 5729 5734 5744 5753 5760 5768 5773 5777 5784 5790 5794 5800 5802 5804 5807 5810 5812 5814 5815 5815 5816 5816 5816 5816 5816 5816 5816 5816
5683 5677 5674 5670 5667 5663 5660 5659 5659 5655 5654 5658 5664 5671 5682 5687 5692 5700 5704 5709 5715 5724 5729 5735 5744 5751 5759 5763 5769 5776 5782 5785 5790 5793 5798 5800 5803 5806 5807 5809 5810 5810 5811 5811 5811 5811 5811 5811 5810
5679 5675 5672 5669 5664 5661 5656 5656 5658 5652 5650 5653 5657 5662 5671 5679 5685 5690 5698 5701 5706 5712 5718 5727 5735 5743 5749 5753 5758 5765 5772 5776 5781 5786 5790 5794 5796 5799 5800 5802 5803 5804 5805 5805 5805 5805 5805 5804 5804
5674 5671 5667 5665 5663 5661 5655 5654 5653 5650 5649 5650 5654 5657 5664 5671 5678 5682 5691 5695 5700 5706 5712 5721 5730 5739 5741 5748 5749 5754 5761 5767 5773 5778 5782 5786 5789 5791 5793 5795 5797 5798 5798 5798 5798 5799 5798 5797 5797
5669 5666 5663 5661 5659 5658 5655 5652 5650 5648 5646 5646 5651 5654 5658 5664 5671 5675 5681 5690 5694 5700 5705 5713 5722 5727 5733 5737 5739 5745 5751 5758 5764 5768 5774 5778 5781 5783 5784 5787 5789 5790 5791 5790 5790 5791 5791 5790 5789
5663 5661 5658 5654 5654 5653 5652 5651 5648 5643 5641 5643 5646 5650 5651 5656 5662 5669 5674 5679 5687 5691 5699 5704 5712 5717 5721 5722 5734 5737 5740 5750 5753 5758 5765 5768 5771 5773 5777 5779 5781 5782 5783 5783 5783 5782 5783 5783 5782
5658 5655 5654 5650 5648 5648 5649 5648 5644 5640 5638 5637 5637 5642 5646 5649 5653 5659 5662 5670 5676 5683 5688 5695 5701 5708 5714 5717 5721 5730 5738 5739 5742 5747 5754 5757 5760 5762 5766 5769 5771 5773 5773 5773 5773 5774 5774 5774 5774
5649 5646 5647 5645 5640 5641 5644 5644 5638 5636 5635 5633 5633 5633 5637 5642 5645 5648 5653 5657 5664 5670 5675 5681 5690 5698 5704 5709 5713 5721 5727 5729 5729 5736 5743 5747 5748 5751 5756 5758 5760 5762 5764 5764 5763 5764 5764 5764 5763
5637 5638 5639 5637 5636 5632 5636 5640 5635 5633 5631 5628 5627 5628 5630 5633 5638 5640 5642 5645 5651 5658 5662 5670 5677 5687 5693 5699 5703 5708 5713 5718 5725 5729 5733 5736 5737 5740 5744 5747 5749 5752 5754 5754 5754 5754 5754 5754 5753
5627 5629 5630 5628 5628 5626 5628 5636 5631 5628 5627 5626 5623 5623 5624 5625 5629 5633 5634 5637 5640 5646 5651 5657 5663 5672 5682 5689 5695 5698 5703 5707 5711 5718 5721 5722 5722 5726 5728 5733 5736 5740 5742 5743 5743 5742 5743 5742 5743